EW7868 Weather Reports


Display with metric or nautical units.
time (UTC)temp
F
wind
direction
speed
MPH
gust
MPH
rain 1hr
in
rain 24hr
in
rain mn
in
humidity
%
barometer
mb
20260831144832 77 35 0.0 3.0 0.00 0.04 0.04 79 1014.0
20260831144328 77 206 0.0 6.0 0.00 0.04 0.04 79 1014.1
20260831143823 77 69 1.0 3.0 0.00 0.04 0.04 78 1014.2
20260831143318 76 74 0.0 3.0 0.00 0.04 0.04 78 1014.2
20260831142813 76 188 2.0 4.0 0.00 0.04 0.04 79 1014.1
20260831142308 76 191 0.0 2.0 0.00 0.04 0.04 79 1014.3
20260831141803 75 203 0.0 2.0 0.00 0.04 0.04 80 1014.0
20260831141257 75 109 0.0 4.0 0.00 0.04 0.04 80 1014.1
20260831140752 75 263 0.0 3.0 0.00 0.04 0.04 81 1014.2
20260831140246 75 203 2.0 3.0 0.00 0.04 0.04 81 1013.9
20260831135744 74 66 0.0 2.0 0.00 0.04 0.04 82 1014.2
20260831135240 74 194 1.0 1.0 0.00 0.04 0.04 83 1013.9
20260831134735 74 78 2.0 3.0 0.00 0.04 0.04 83 1013.9
20260831134232 74 74 0.0 2.0 0.00 0.04 0.04 84 1013.7
20260831133731 74 81 0.0 2.0 0.00 0.04 0.04 83 1014.1
20260831133225 73 79 2.0 2.0 0.00 0.04 0.04 83 1014.0
20260831132721 73 196 0.0 2.0 0.00 0.04 0.04 84 1014.0
20260831132220 73 203 0.0 5.0 0.00 0.04 0.04 84 1013.7
20260831131715 73 192 0.0 5.0 0.00 0.04 0.04 84 1013.6
20260831131212 73 251 2.0 7.0 0.00 0.04 0.04 85 1013.4
20260831130706 73 206 2.0 3.0 0.00 0.04 0.04 85 1013.4
20260831130202 73 192 1.0 5.0 0.00 0.04 0.04 85 1013.5
20260831125700 72 180 1.0 4.0 0.00 0.04 0.04 86 1013.5
20260831125156 72 203 1.0 5.0 0.00 0.04 0.04 85 1013.4
20260831124651 72 188 5.0 5.0 0.00 0.04 0.04 85 1013.3
20260831124148 72 189 4.0 6.0 0.00 0.04 0.04 86 1013.3
20260831123647 72 192 0.0 4.0 0.00 0.04 0.04 87 1013.4
20260831123146 72 197 3.0 5.0 0.00 0.04 0.04 86 1013.1
20260831122645 72 184 2.0 4.0 0.00 0.04 0.04 87 1013.3
20260831122142 72 194 4.0 5.0 0.00 0.04 0.04 87 1013.0
20260831121641 72 194 4.0 5.0 0.00 0.04 0.04 87 1013.1
20260831121138 72 196 2.0 5.0 0.00 0.04 0.04 87 1013.1
20260831120632 72 180 2.0 7.0 0.00 0.04 0.04 86 1013.1
20260831120122 71 199 2.0 5.0 0.00 0.04 0.04 87 1013.0
20260831115618 71 186 3.0 6.0 0.00 0.04 0.04 87 1013.2
20260831115113 71 194 3.0 5.0 0.02 0.04 0.04 88 1013.3
20260831114612 71 199 2.0 5.0 0.02 0.04 0.04 88 1013.2
20260831114107 71 186 1.0 5.0 0.00 0.04 0.04 87 1013.1
20260831113606 71 199 3.0 5.0 0.00 0.04 0.04 87 1013.1
20260831113102 71 194 1.0 3.0 0.00 0.04 0.04 87 1013.1
20260831112601 71 180 0.0 4.0 0.00 0.04 0.04 88 1013.0
20260831112056 71 191 2.0 5.0 0.00 0.04 0.04 88 1013.0
20260831111552 71 186 0.0 5.0 0.00 0.04 0.04 88 1013.0
20260831111048 71 195 2.0 4.0 0.00 0.04 0.04 89 1013.2
20260831110542 71 184 2.0 3.0 0.00 0.04 0.04 89 1013.1
20260831110037 71 208 2.0 5.0 0.00 0.04 0.04 89 1013.0
20260831105531 70 218 2.0 5.0 0.00 0.04 0.04 90 1012.8
20260831105026 70 194 4.0 5.0 0.17 0.04 0.04 93 1013.0
20260831104523 70 196 6.0 6.0 0.14 0.03 0.03 91 1013.2
20260831104018 71 217 2.0 5.0 0.02 0.01 0.01 87 1013.0
20260831103513 71 197 4.0 6.0 0.05 0.01 0.01 87 1012.7
20260831103009 73 199 2.0 6.0 0.02 0.00 0.00 84 1012.8
20260831102503 74 192 3.0 5.0 0.00 0.00 0.00 79 1012.8
20260831101958 74 199 2.0 9.0 0.00 0.00 0.00 77 1012.7
20260831101453 75 207 3.0 7.0 0.00 0.00 0.00 76 1012.8
20260831100949 75 193 5.0 10.0 0.00 0.00 0.00 75 1012.7
20260831100445 75 199 2.0 8.0 0.00 0.00 0.00 76 1012.5
20260831095940 75 195 6.0 6.0 0.00 0.00 0.00 75 1012.8
20260831095439 75 201 3.0 6.0 0.00 0.00 0.00 74 1013.0
20260831094934 76 208 0.0 9.0 0.00 0.00 0.00 74 1012.7
20260831094431 76 201 3.0 10.0 0.00 0.00 0.00 73 1012.7
20260831093926 76 192 5.0 8.0 0.00 0.00 0.00 74 1012.8
20260831093420 76 191 6.0 9.0 0.00 0.00 0.00 73 1012.7
20260831092918 76 201 5.0 11.0 0.00 0.00 0.00 73 1012.5
20260831092413 76 199 5.0 9.0 0.00 0.00 0.00 74 1012.6
20260831091908 76 195 5.0 12.0 0.00 0.00 0.00 72 1012.6
20260831091403 76 207 5.0 7.0 0.00 0.00 0.00 72 1012.9
20260831090858 77 180 0.0 9.0 0.00 0.00 0.00 72 1012.6
20260831090354 77 190 4.0 9.0 0.00 0.00 0.00 72 1012.8
20260831085850 77 213 3.0 9.0 0.00 0.00 0.00 72 1012.7
20260831085344 77 196 10.0 12.0 0.00 0.00 0.00 72 1012.4
20260831084844 76 203 3.0 9.0 0.00 0.00 0.00 74 1012.7
20260831084341 76 208 3.0 9.0 0.00 0.00 0.00 74 1012.5
20260831083837 76 197 6.0 11.0 0.00 0.00 0.00 75 1012.7
20260831083332 75 178 4.0 6.0 0.00 0.00 0.00 75 1012.7
20260831082831 76 244 3.0 7.0 0.00 0.00 0.00 75 1012.7
20260831082326 76 208 5.0 9.0 0.00 0.00 0.00 74 1012.8
20260831081822 76 213 4.0 10.0 0.00 0.00 0.00 75 1012.8
20260831081317 76 212 3.0 6.0 0.00 0.00 0.00 75 1012.8
20260831080813 77 195 4.0 11.0 0.00 0.00 0.00 74 1012.8
20260831080307 76 198 4.0 10.0 0.00 0.00 0.00 75 1013.0
20260831075803 76 219 4.0 6.0 0.00 0.00 0.00 75 1012.8
20260831075258 76 195 8.0 8.0 0.00 0.00 0.00 75 1012.7
20260831074758 76 198 6.0 9.0 0.00 0.00 0.00 75 1013.0
20260831074251 76 194 0.0 7.0 0.00 0.00 0.00 75 1013.0
20260831073748 76 194 3.0 11.0 0.00 0.00 0.00 76 1012.9
20260831073246 76 191 2.0 6.0 0.00 0.00 0.00 76 1012.9
20260831072742 76 195 1.0 6.0 0.00 0.00 0.00 76 1012.9
20260831072238 76 216 0.0 6.0 0.00 0.00 0.00 77 1013.1
20260831071738 76 188 2.0 6.0 0.00 0.00 0.00 77 1012.9
20260831071233 76 196 2.0 6.0 0.00 0.00 0.00 77 1013.1
20260831070727 77 188 4.0 9.0 0.00 0.00 0.00 76 1013.0
20260831070221 77 193 5.0 7.0 0.00 0.00 0.00 76 1012.9
20260831065720 77 194 2.0 7.0 0.00 0.00 0.00 77 1013.0
20260831065218 77 230 4.0 7.0 0.00 0.00 0.00 76 1012.9
20260831064713 77 199 5.0 7.0 0.00 0.00 0.00 76 1012.9
20260831064208 77 199 3.0 10.0 0.00 0.00 0.00 76 1013.0
20260831063705 77 203 3.0 5.0 0.00 0.00 0.00 77 1012.9
20260831063154 77 206 2.0 7.0 0.00 0.00 0.00 77 1013.1
20260831062654 77 192 1.0 5.0 0.00 0.00 0.00 78 1013.1
20260831062148 77 196 3.0 9.0 0.00 0.00 0.00 78 1013.3
20260831061646 77 195 6.0 6.0 0.00 0.00 0.00 79 1013.2
20260831061142 77 199 6.0 8.0 0.00 0.00 0.00 80 1013.2
20260831060638 77 192 4.0 7.0 0.00 0.00 0.00 81 1013.4
20260831060132 77 197 5.0 6.0 0.00 0.00 0.00 83 1013.0
20260831055631 76 195 3.0 7.0 0.00 0.00 0.00 84 1013.0
20260831055127 76 195 3.0 5.0 0.00 0.00 0.00 85 1013.2
20260831054627 76 120 0.0 4.0 0.00 0.00 0.00 85 1013.1
20260831054126 77 75 0.0 6.0 0.00 0.00 0.00 84 1013.1
20260831053621 77 190 3.0 6.0 0.00 0.00 0.00 84 1013.2
20260831053120 77 216 2.0 7.0 0.00 0.00 0.00 84 1013.3
20260831052619 77 196 5.0 6.0 0.00 0.00 0.00 84 1013.3
20260831052118 77 204 4.0 6.0 0.00 0.00 0.00 84 1013.2
20260831051616 76 212 3.0 6.0 0.00 0.00 0.00 85 1013.3
20260831051115 76 192 0.0 7.0 0.00 0.00 0.00 85 1013.2
20260831050610 77 200 3.0 6.0 0.00 0.00 0.00 86 1013.4
20260831050109 77 241 0.0 7.0 0.00 0.00 0.00 86 1013.3
20260831045608 77 186 3.0 10.0 0.00 0.14 0.14 86 1013.3
20260831045104 77 199 5.0 9.0 0.00 0.14 0.14 87 1013.2
20260831044559 76 196 3.0 7.0 0.00 0.14 0.14 88 1013.1
20260831044054 76 200 1.0 5.0 0.00 0.14 0.14 88 1013.4
20260831043549 76 206 2.0 8.0 0.00 0.14 0.14 88 1013.3
20260831043044 75 189 4.0 9.0 0.00 0.14 0.14 90 1013.4
20260831042543 75 192 4.0 6.0 0.00 0.14 0.14 93 1013.6
20260831042039 75 197 2.0 6.0 0.00 0.14 0.14 93 1013.4
20260831041534 75 197 3.0 5.0 0.00 0.14 0.14 93 1013.5
20260831041027 75 162 1.0 4.0 0.00 0.14 0.14 93 1013.9
20260831040522 75 198 2.0 2.0 0.00 0.14 0.14 94 1013.6
20260831040021 75 73 0.0 2.0 0.00 0.14 0.14 94 1013.8
20260831035514 75 195 1.0 1.0 0.00 0.14 0.14 94 1014.0
20260831035009 75 196 0.0 3.0 0.00 0.14 0.14 94 1013.9
20260831034503 75 180 0.0 1.0 0.00 0.14 0.14 95 1014.1
20260831033959 75 185 0.0 2.0 0.00 0.14 0.14 95 1013.9
20260831033454 75 201 0.0 3.0 0.00 0.14 0.14 95 1014.2
20260831032949 75 180 0.0 1.0 0.00 0.14 0.14 95 1014.2
20260831032444 75 198 1.0 1.0 0.00 0.14 0.14 95 1014.3
20260831031939 75 195 0.0 0.0 0.00 0.14 0.14 95 1014.2
20260831031439 75 203 0.0 0.0 0.00 0.14 0.14 95 1014.4
20260831030938 75 191 0.0 2.0 0.00 0.14 0.14 94 1014.2
20260831030437 75 90 0.0 1.0 0.00 0.14 0.14 94 1014.5
20260831025935 75 90 0.0 3.0 0.00 0.14 0.14 94 1014.4
20260831025435 75 84 2.0 2.0 0.00 0.14 0.14 94 1014.4
20260831024931 75 90 1.0 1.0 0.00 0.14 0.14 95 1014.2
20260831024430 75 6 0.0 1.0 0.00 0.14 0.14 95 1014.2
20260831023925 75 82 0.0 1.0 0.00 0.14 0.14 95 1014.0
20260831023423 75 195 1.0 1.0 0.00 0.14 0.14 96 1014.1
20260831022919 75 90 0.0 1.0 0.00 0.14 0.14 96 1014.3
20260831022418 75 90 0.0 0.0 0.00 0.14 0.14 97 1014.3
20260831021917 75 77 0.0 2.0 0.00 0.14 0.14 97 1014.2
20260831021412 75 90 0.0 0.0 0.00 0.14 0.14 97 1014.1
20260831020908 75 195 0.0 0.0 0.00 0.14 0.14 97 1014.1
20260831020407 75 195 0.0 0.0 0.00 0.14 0.14 97 1014.1
20260831015902 75 186 0.0 1.0 0.00 0.14 0.14 97 1014.0
20260831015359 75 90 0.0 0.0 0.00 0.14 0.14 97 1013.9
20260831014858 75 81 0.0 0.0 0.00 0.14 0.14 97 1014.0
20260831014353 75 81 0.0 0.0 0.00 0.14 0.14 97 1014.2
20260831013849 75 75 1.0 2.0 0.00 0.14 0.14 97 1014.3
20260831013344 76 90 0.0 1.0 0.02 0.14 0.14 96 1014.3
20260831012838 76 90 0.0 0.0 0.02 0.14 0.14 95 1014.3
20260831012334 76 74 0.0 1.0 0.00 0.13 0.13 95 1014.1
20260831011833 76 185 0.0 0.0 0.05 0.13 0.13 96 1014.0
20260831011328 76 198 0.0 3.0 0.02 0.13 0.13 95 1013.7
20260831010819 76 185 0.0 3.0 0.00 0.13 0.13 95 1013.7
20260831010318 75 180 0.0 2.0 0.00 0.13 0.13 95 1013.7
20260831005814 76 192 2.0 4.0 0.00 0.13 0.13 96 1013.8
20260831005310 75 194 3.0 3.0 0.00 0.13 0.13 95 1013.8
20260831004804 75 195 2.0 3.0 0.02 0.13 0.13 96 1013.4
20260831004301 76 201 2.0 4.0 0.00 0.12 0.12 96 1013.4
20260831003756 76 195 0.0 2.0 0.00 0.12 0.12 95 1013.2
20260831003252 76 180 0.0 1.0 0.00 0.12 0.12 95 1013.5
20260831002751 76 90 0.0 1.0 0.00 0.12 0.12 95 1013.4
20260831002251 76 81 0.0 2.0 0.00 0.12 0.12 95 1013.5
20260831001746 76 90 0.0 1.0 0.00 0.12 0.12 95 1013.9
20260831001241 76 180 0.0 0.0 0.00 0.12 0.12 94 1014.3
20260831000738 76 180 0.0 0.0 0.00 0.12 0.12 94 1014.1
20260831000233 76 180 0.0 0.0 0.00 0.12 0.12 93 1014.0
20260830235732 76 180 0.0 0.0 0.00 0.12 0.12 93 1014.1
20260830235227 77 103 0.0 2.0 0.00 0.12 0.12 93 1013.8
20260830234722 77 180 0.0 2.0 0.00 0.12 0.12 93 1013.6
20260830234218 77 106 0.0 2.0 0.00 0.12 0.12 93 1013.7
20260830233713 77 90 0.0 4.0 0.02 0.12 0.12 92 1013.6
20260830233209 77 90 0.0 2.0 0.02 0.12 0.12 91 1013.7
20260830232704 77 106 1.0 2.0 0.00 0.12 0.12 90 1014.1
20260830232200 77 98 1.0 3.0 0.00 0.12 0.12 89 1014.4
20260830231656 78 90 1.0 1.0 0.00 0.12 0.12 89 1014.1
20260830231155 78 180 0.0 3.0 0.00 0.12 0.12 89 1013.9
20260830230650 78 180 0.0 1.0 0.00 0.12 0.12 89 1014.3
20260830230145 78 194 0.0 0.0 0.00 0.12 0.12 88 1014.4
20260830225640 78 194 0.0 1.0 0.00 0.12 0.12 87 1014.3
20260830225135 78 209 1.0 2.0 0.00 0.12 0.12 88 1014.6
20260830224633 78 82 0.0 0.0 0.00 0.12 0.12 88 1014.5
20260830224124 79 82 0.0 0.0 0.00 0.12 0.12 88 1014.5
20260830223621 79 82 0.0 0.0 0.00 0.12 0.12 88 1014.5
20260830223120 79 82 0.0 0.0 0.00 0.12 0.12 87 1014.7
20260830222615 79 82 0.0 0.0 0.00 0.12 0.12 86 1014.5
20260830222111 79 82 0.0 0.0 0.00 0.12 0.12 85 1014.4
20260830221606 79 82 0.0 0.0 0.00 0.12 0.12 86 1014.6
20260830221102 79 82 0.0 0.0 0.00 0.12 0.12 86 1014.3
20260830220557 79 82 0.0 0.0 0.00 0.12 0.12 86 1014.7
20260830220055 78 84 0.0 2.0 0.00 0.12 0.12 86 1014.2
20260830215549 78 123 0.0 2.0 0.00 0.12 0.12 85 1013.8
20260830215044 79 63 0.0 2.0 0.00 0.12 0.12 85 1013.9
20260830214539 79 337 0.0 1.0 0.00 0.12 0.12 84 1014.0
20260830214033 79 63 1.0 2.0 0.00 0.12 0.12 84 1013.8
20260830213528 79 81 2.0 2.0 0.00 0.12 0.12 84 1013.7
20260830213023 79 294 0.0 0.0 0.00 0.12 0.12 83 1014.3
20260830212519 79 352 0.0 0.0 0.00 0.12 0.12 83 1014.1
20260830212014 79 337 0.0 0.0 0.00 0.12 0.12 83 1014.2
20260830211509 80 216 0.0 2.0 0.00 0.12 0.12 83 1014.3
20260830211003 80 279 0.0 2.0 0.00 0.12 0.12 82 1014.5
20260830210503 80 204 0.0 2.0 0.00 0.12 0.12 83 1014.4
20260830210002 80 201 2.0 3.0 0.00 0.12 0.12 82 1014.4
20260830205500 80 203 3.0 3.0 0.00 0.12 0.12 81 1014.4
20260830204956 80 206 0.0 3.0 0.00 0.12 0.12 82 1014.5
20260830204455 80 212 0.0 2.0 0.00 0.12 0.12 81 1014.4
20260830203949 80 303 0.0 2.0 0.00 0.12 0.12 81 1014.8
20260830203446 80 248 2.0 2.0 0.00 0.12 0.12 81 1014.5
20260830202945 81 251 2.0 2.0 0.00 0.12 0.12 80 1014.8
20260830202440 80 261 1.0 2.0 0.00 0.12 0.12 81 1014.4
20260830201931 80 353 1.0 1.0 0.00 0.12 0.12 83 1014.6
20260830201429 79 340 1.0 2.0 0.00 0.12 0.12 83 1014.7
20260830200926 79 243 2.0 3.0 0.00 0.12 0.12 83 1014.8
20260830200425 79 352 0.0 1.0 0.00 0.12 0.12 83 1014.6
20260830195925 79 0 0.0 2.0 0.00 0.12 0.12 82 1014.6
20260830195421 79 337 2.0 2.0 0.00 0.12 0.12 83 1014.4
20260830194919 79 194 3.0 4.0 0.00 0.12 0.12 83 1014.4
20260830194419 79 0 2.0 5.0 0.00 0.12 0.12 83 1014.3
20260830193918 79 195 5.0 7.0 0.00 0.12 0.12 82 1014.1
20260830193417 79 210 2.0 5.0 0.00 0.12 0.12 84 1014.2
20260830192913 79 193 5.0 6.0 0.00 0.12 0.12 83 1014.0
20260830192408 78 199 4.0 6.0 0.00 0.12 0.12 83 1014.0
20260830191903 78 189 0.0 5.0 0.00 0.12 0.12 86 1014.0
20260830191403 77 173 1.0 6.0 0.02 0.12 0.12 87 1014.1
20260830190859 76 198 4.0 6.0 0.07 0.12 0.12 88 1014.4
20260830190354 77 277 1.0 5.0 0.02 0.11 0.11 86 1014.3
20260830185852 77 186 3.0 5.0 0.00 0.11 0.11 83 1014.2
20260830185348 77 196 6.0 6.0 0.00 0.11 0.11 82 1014.2
20260830184843 78 195 3.0 6.0 0.00 0.11 0.11 82 1014.1
20260830184342 78 195 1.0 6.0 0.00 0.11 0.11 82 1014.1
20260830183837 78 218 4.0 12.0 0.00 0.11 0.11 79 1014.0
20260830183337 79 225 3.0 13.0 0.00 0.11 0.11 78 1013.7
20260830182832 79 199 3.0 6.0 0.00 0.11 0.11 79 1013.5
20260830182328 79 192 6.0 13.0 0.00 0.11 0.11 77 1013.8
20260830181824 80 198 8.0 13.0 0.00 0.11 0.11 77 1013.5
20260830181319 79 199 4.0 11.0 0.00 0.11 0.11 79 1013.5
20260830180818 79 180 4.0 19.0 0.00 0.11 0.11 78 1013.7
20260830180313 79 194 3.0 9.0 0.00 0.11 0.11 78 1013.5
20260830175807 78 198 10.0 11.0 0.00 0.11 0.11 78 1013.8
20260830175305 78 196 3.0 11.0 0.00 0.11 0.11 79 1013.5
20260830174802 78 180 3.0 11.0 0.00 0.11 0.11 79 1013.8
20260830174258 78 203 2.0 14.0 0.00 0.11 0.11 81 1013.7
20260830173757 78 203 3.0 12.0 0.00 0.11 0.11 81 1013.8
20260830173253 77 218 5.0 11.0 0.00 0.11 0.11 82 1013.9
20260830172749 77 248 2.0 18.0 0.00 0.11 0.11 82 1013.8
20260830172246 77 191 8.0 12.0 0.00 0.11 0.11 81 1013.8
20260830171741 76 196 6.0 12.0 0.00 0.11 0.11 83 1013.7
20260830171236 75 199 4.0 11.0 0.00 0.11 0.11 85 1013.9
20260830170731 75 199 5.0 7.0 0.00 0.11 0.11 87 1014.3
20260830170230 74 192 2.0 7.0 0.00 0.11 0.11 87 1014.5
20260830165729 74 199 7.0 9.0 0.00 0.11 0.11 87 1014.5
20260830165225 74 200 5.0 9.0 0.00 0.11 0.11 86 1014.3
20260830164721 74 197 8.0 10.0 0.00 0.11 0.11 86 1014.4
20260830164217 74 196 9.0 11.0 0.00 0.11 0.11 86 1014.7
20260830163714 74 217 5.0 10.0 0.00 0.11 0.11 86 1014.8
20260830163209 73 203 8.0 12.0 0.00 0.11 0.11 87 1014.8
20260830162704 73 202 6.0 9.0 0.00 0.11 0.11 86 1014.7
20260830162159 73 195 4.0 11.0 0.00 0.11 0.11 86 1014.8
20260830161654 73 191 5.0 10.0 0.00 0.11 0.11 86 1014.8
20260830161149 73 148 0.0 10.0 0.00 0.11 0.11 86 1014.8
20260830160645 73 196 5.0 10.0 0.00 0.11 0.11 86 1014.7
20260830160139 73 198 5.0 12.0 0.00 0.11 0.11 85 1014.7
20260830155636 73 202 6.0 8.0 0.00 0.11 0.11 86 1014.5
20260830155131 73 191 5.0 12.0 0.00 0.11 0.11 88 1014.4
20260830154626 73 202 4.0 9.0 0.00 0.11 0.11 88 1014.1
20260830154122 73 203 6.0 8.0 0.00 0.11 0.11 88 1014.1
20260830153619 73 218 3.0 10.0 0.00 0.11 0.11 88 1014.1
20260830153118 73 180 4.0 9.0 0.00 0.11 0.11 90 1014.1
20260830152617 72 200 5.0 8.0 0.00 0.11 0.11 91 1014.5
20260830152117 71 196 5.0 9.0 0.00 0.11 0.11 93 1014.1
20260830151612 70 197 6.0 8.0 0.00 0.11 0.11 95 1013.9
20260830151106 70 200 6.0 9.0 0.02 0.11 0.11 96 1013.9
20260830150601 69 195 6.0 9.0 0.02 0.11 0.11 96 1014.1
20260830150056 69 196 4.0 8.0 0.00 0.10 0.10 96 1014.5
20260830145555 69 94 2.0 11.0 0.00 0.10 0.10 97 1014.6